Regional Weather Roundup
Issued by NWS

Home | Current Version | Previous Version | Graphics & Text | Print | Product List | Glossary On
Versions: 1 2 3 4 5 6 7 8 9 10 11 12 13 14 15 16 17 18 19 20 21 22 23 24 25 26 27
000
ASUS45 KPSR 281610
RWRAZ

ARIZONA HOURLY REGIONAL WEATHER ROUNDUP
NATIONAL WEATHER SERVICE PHOENIX AZ
900 AM MST FRI APR 28 2017

NOTE: FAIR INDICATES FEW OR NO CLOUDS BELOW 12,000 FEET WITH NO
SIGNIFICANT WEATHER AND/OR OBSTRUCTIONS TO VISIBILITY.

AZZ001>003-036-281700-
NORTHWEST ARIZONA

CITY           SKY/WX    TMP DP  RH WIND       PRES   REMARKS
BULLHEAD CITY  SUNNY     72  12  10 N31G45    29.78R
KINGMAN        MOSUNNY   59  14  17 N22       29.85S
$$

AZZ004>008-015-016-018-281700-
NORTH CENTRAL ARIZONA

CITY           SKY/WX    TMP DP  RH WIND       PRES   REMARKS
GRAND CANYON   MOSUNNY   44  16  32 W8        29.82S
WILLIAMS       CLOUDY    45  10  24 NW15G23   29.85F
PRESCOTT       MOSUNNY   53  13  20 N21       29.83S
FLAGSTAFF      PTSUNNY   44  11  26 NW12G28   29.82S
PAYSON         CLOUDY    57  16  19 NW13G18   29.81R
PAGE           SUNNY     51  13  21 NW16G22   29.81S
$$

AZZ009>014-017-281700-
NORTHEAST ARIZONA

CITY           SKY/WX    TMP DP  RH WIND       PRES   REMARKS
WINSLOW        CLOUDY    49  31  49 NE10      29.81R
SAINT JOHNS    LGT RAIN  44  37  76 N10       29.78R
WINDOW ROCK    FLURRIES  37  32  82 W6        29.80R WCI  32
SHOW LOW       CLOUDY    45  19  36 NW12      29.81R
$$

AZZ540-542>544-546-548-281700-
GREATER PHOENIX AREA

CITY           SKY/WX    TMP DP  RH WIND       PRES   REMARKS
PHOENIX        CLOUDY    76  48  37 W18G25    29.65R
BUCKEYE        CLOUDY    73  48  40 SW8       29.67R
GLENDALE       PTSUNNY   73  48  40 SW9       29.68R
LUKE AFB       CLOUDY    74  50  42 SW14      29.65S
DEER VALLEY    CLOUDY    72  42  34 NW8       29.67R
SCOTTSDALE     CLOUDY    72  48  42 W7        29.69R
MESA-GATEWAY   CLOUDY    73  46  38 SW9       29.67S
CHANDLER       PTSUNNY   75  46  35 SW17      29.66S
$$

AZZ539-553-281700-
SOUTHWEST MARICOPA COUNTY AND PINAL COUNTY

CITY           SKY/WX    TMP DP  RH WIND       PRES   REMARKS
CASA GRANDE    CLOUDY    75  47  36 S12       29.68S
GILA BEND      PTSUNNY   77  51  41 SW16G23   29.65S
$$

AZZ503-504-507>509-281700-
SOUTHEAST ARIZONA

CITY           SKY/WX    TMP DP  RH WIND       PRES   REMARKS
TUCSON         PTSUNNY   75  42  30 SW18G25   29.73F
DAVIS-MONTHAN  PTSUNNY   74  43  32 SW14G23   29.72F
RYAN FIELD     SUNNY     75  45  33 S17G23    29.72F
NOGALES        SUNNY     70  42  36 S17G28    29.79F
SIERRA VISTA   SUNNY     70  39  32 SW18G29   29.81F
DOUGLAS        SUNNY     69  40  34 S15G22    29.80F
SAFFORD        CLOUDY    73  41  31 NW17      29.68F
$$

AZZ532-281700-
SOUTHWEST ARIZONA

CITY           SKY/WX    TMP DP  RH WIND       PRES   REMARKS
YUMA           PTSUNNY   78  27  15 N22G32    29.69R
$$

CAZ041-043-047-048-061-525>527-560>570-281700-
SOUTHERN CALIFORNIA

CITY           SKY/WX    TMP DP  RH WIND       PRES   REMARKS
DOWNTOWN L.A.  SUNNY     73  36  25 VRB6G20   29.79R
L.A. AIRPORT   MOSUNNY   72  34  24 N20G28    29.80R
SAN DIEGO      PTSUNNY   64  57  78 S7        29.83R
BURBANK        SUNNY     67  34  29 NW18G26   29.81S
ONTARIO        MOSUNNY   63  48  58 NW5       29.81R
RIVERSIDE      MOSUNNY   65  50  58 W6        29.80F
PALM SPRINGS   MOSUNNY   77  31  18 W5        29.75S
EL CENTRO NAS  MOSUNNY   79  39  23 N12       29.73R
IMPERIAL       MOSUNNY   77  52  41 N9        29.70R
BLYTHE         CLOUDY    75  17  11 N28G39    29.73R
NEEDLES        MOSUNNY   74  16  11 N26G36    29.80S
$$

NVZ020-UTZ003-281700-
SOUTHERN NEVADA-UTAH

CITY           SKY/WX    TMP DP  RH WIND       PRES   REMARKS
LAS VEGAS      MOSUNNY   63  12  13 N20G30    29.88R
SALT LAKE CITY LGT SNOW  38  30  73 NW8G17    29.90S WCI  32
$$

NMZ009-TXZ055-281700-
NEW MEXICO-WEST TEXAS

CITY           SKY/WX    TMP DP  RH WIND       PRES   REMARKS
ALBUQUERQUE    CLOUDY    46  28  49 N16       29.75S
EL PASO        PTSUNNY   72  35  25 W24G32    29.73F
$$


........................KEY........................
SKY/WX - SKY CONDITION/WEATHER
TMP    - TEMPERATURE IN FAHRENHEIT
DP     - DEW POINT IN FAHRENHEIT
RH     - RELATIVE HUMIDITY IN PERCENT
WIND   - DIRECTION AND SPEED IN MILES PER HOUR (MPH)
VRB    - VARIABLE WIND DIRECTION
PRES   - MEAN SEA LEVEL PRESSURE IN INCHES OF MERCURY
         F - FALLING PRESSURE   R - RISING PRESSURE
         S - STEADY PRESSURE
VSB    - VISIBILITY IN MILES
HX     - HEAT INDEX IN FAHRENHEIT
WCI    - WIND CHILL INDEX IN FAHRENHEIT
TC     - TEMPERATURE IN CELSIUS WHICH IS ALSO KNOWN AS
         TEMPERATURE IN CENTIGRADE
AFB    - AIR FORCE BASE
         LUKE AFB IS LUKE AIR FORCE BASE
         DAVIS-MONTHAN IS DAVIS-MONTHAN AIR FORCE BASE
NAS    - NAVAL AIR STATION
         EL CENTRO NAS IS EL CENTRO NAVAL AIR STATION
N/A    - NOT AVAILABLE





USA.gov is the U.S. government's official web portal to all federal, state and local government web resources and services.